Weather History for Saginaw, MI

Change the Weather History Date:

Sunday, November 14, 2010

  Actual Average Record
Temperature  
Mean Temperature 44 °F 39 °F  
Max Temperature 50 °F 47 °F 57 °F (1999)
Min Temperature 37 °F 32 °F 17 °F (1996)
Degree Days  
Heating Degree Days 22    
Month to date heating degree days  
Since 1 July heating degree days  
Cooling Degree Days 0    
Month to date cooling degree days  
Year to date cooling degree days  
Moisture  
Dew Point 35 °F    
Average Humidity 77    
Maximum Humidity 93    
Minimum Humidity 70    
Precipitation  
Precipitation 0.01 in 0.10 in 0.36 in (1997)
Month to date precipitation 1.30  
Year to date precipitation 28.28  
Snow  
Snow 0.00 in - - ()
Month to date snowfall  
Since 1 July snowfall  
Since 1 September snowfall  
Snow Depth -    
Sea Level Pressure  
Sea Level Pressure 29.83 in    
Wind  
Wind Speed 14 mph (SW)    
Max Wind Speed 22 mph    
Max Gust Speed 30 mph    
Visibility 10 miles    
Events Rain    
T = Trace of Precipitation, MM = Missing Value Source: NWS Daily Summary

Daily Weather History Graph

Daily Weather History Graph

Search for Another Location

Airport:

Trip Planner

Search our weather history database for the weather conditions in past years. The results will help you decide how hot, cold, wet, or windy it might be!

Date:

Astronomy

Nov. 14, 2010 Rise Set
Actual Time 7:28 AM EST 5:12 PM EST
Civil Twilight 6:57 AM EST 5:43 PM EST
Nautical Twilight 6:23 AM EST 6:17 PM EST
Astronomical Twilight 5:49 AM EST 6:51 PM EST
Moon 1:41 PM EST (11/14) 12:24 AM EST (11/14)
Length of Visible Light 10h 45m
Length of Day
9h 43m
First Quarter, 60% of the Moon is Illuminated
Nov 14
First Quarter
Nov 21
Full
Nov 28
Last Quarter
Dec 5
New
Dec 13
First Quarter

Hourly Weather History & Observations

Time (EST) Temp. Windchill Dew Point Humidity Pressure Visibility Wind Dir Wind Speed Gust Speed Precip Events Conditions
12:44 AM 50.0 °F - 46.4 °F 87% 29.83 in 8.0 mi WSW 11.5 mph - 0.01 in   Mostly Cloudy
12:53 AM 50.0 °F - 46.0 °F 86% 29.84 in 9.0 mi WSW 10.4 mph - 0.01 in   Overcast
1:32 AM 48.2 °F - 46.4 °F 93% 29.82 in 8.0 mi WSW 10.4 mph - N/A   Overcast
1:53 AM 48.2 °F - 44.6 °F 87% 29.82 in 10.0 mi WSW 12.7 mph - N/A   Overcast
2:53 AM 45.0 °F 37.9 °F 39.9 °F 82% 29.84 in 10.0 mi WSW 16.1 mph - N/A   Overcast
3:53 AM 44.1 °F 37.7 °F 37.0 °F 76% 29.83 in 10.0 mi SW 12.7 mph - N/A   Overcast
4:53 AM 43.0 °F 35.1 °F 36.0 °F 76% 29.83 in 10.0 mi SW 17.3 mph - N/A   Overcast
5:53 AM 43.0 °F 37.2 °F 36.0 °F 76% 29.83 in 10.0 mi SSW 10.4 mph - N/A   Overcast
6:32 AM 42.8 °F 34.8 °F 33.8 °F 70% 29.81 in 10.0 mi SW 17.3 mph 25.3 mph N/A   Overcast
6:53 AM 42.1 °F 33.6 °F 33.1 °F 70% 29.82 in 10.0 mi SW 18.4 mph 24.2 mph N/A   Overcast
7:53 AM 41.0 °F 32.8 °F 33.1 °F 73% 29.82 in 10.0 mi SW 16.1 mph 27.6 mph N/A   Overcast
8:53 AM 41.0 °F 31.4 °F 33.1 °F 73% 29.83 in 10.0 mi SW 21.9 mph 29.9 mph N/A   Overcast
9:53 AM 41.0 °F 32.8 °F 32.0 °F 70% 29.83 in 10.0 mi SSW 16.1 mph 26.5 mph N/A   Overcast
10:53 AM 41.0 °F 33.5 °F 32.0 °F 70% 29.83 in 10.0 mi SSW 13.8 mph 21.9 mph N/A   Overcast
11:53 AM 41.0 °F 33.1 °F 32.0 °F 70% 29.83 in 10.0 mi SSW 15.0 mph 24.2 mph N/A   Overcast
12:53 PM 41.0 °F 33.1 °F 32.0 °F 70% 29.81 in 10.0 mi SSW 15.0 mph 21.9 mph N/A   Overcast
1:53 PM 41.0 °F 31.6 °F 32.0 °F 70% 29.81 in 10.0 mi SSW 20.7 mph 25.3 mph N/A   Overcast
2:53 PM 39.9 °F 31.1 °F 32.0 °F 73% 29.82 in 10.0 mi SW 17.3 mph 28.8 mph N/A   Overcast
3:53 PM 39.0 °F 31.0 °F 34.0 °F 82% 29.83 in 9.0 mi SW 13.8 mph 21.9 mph N/A   Overcast
4:36 PM 39.2 °F 30.5 °F 33.8 °F 81% 29.81 in 10.0 mi SSW 16.1 mph - N/A   Overcast
4:53 PM 39.9 °F 31.8 °F 33.1 °F 77% 29.82 in 10.0 mi SW 15.0 mph 20.7 mph N/A   Overcast
5:53 PM 41.0 °F 33.9 °F 32.0 °F 70% 29.83 in 10.0 mi SW 12.7 mph 20.7 mph N/A   Overcast
6:53 PM 39.9 °F 32.9 °F 32.0 °F 73% 29.85 in 10.0 mi SSW 11.5 mph 21.9 mph N/A   Overcast
7:53 PM 37.9 °F 30.9 °F 30.9 °F 76% 29.84 in 10.0 mi SSW 10.4 mph - N/A   Clear
8:53 PM 39.0 °F 31.4 °F 30.9 °F 73% 29.85 in 10.0 mi South 12.7 mph - N/A   Mostly Cloudy
9:53 PM 37.9 °F 30.9 °F 33.1 °F 83% 29.85 in 10.0 mi SSW 10.4 mph - 0.00 in   Mostly Cloudy
10:53 PM 37.9 °F 30.0 °F 34.0 °F 86% 29.86 in 10.0 mi SSW 12.7 mph 19.6 mph 0.00 in Rain Light Rain
11:53 PM 39.0 °F 31.0 °F 36.0 °F 89% 29.87 in 10.0 mi SSW 13.8 mph 23.0 mph 0.00 in   Overcast